Location: Peebles
(55.6412°N, 3.1714°W)
Time: 08:46:19
(UTC+01:00)

COSMO-SKYMED 1 - Pass Details

Date: 26 September 2021
Orbit: 621 x 623 km, 97.9° (Epoch: 20 October)

Event Time Altitude Azimuth Distance (km) Brightness Sun altitude
Rises 19:59:54 0° 13° (NNE) 2,919 6.0 -9.2°
Reaches altitude 10° 20:02:07 10° 10° (N) 2,007 5.2 -9.5°
Maximum altitude 20:06:25 60° 291° (WNW) 716 3.2 -10.1°
Drops below altitude 10° 20:10:41 10° 211° (SSW) 1,991 5.4 -10.6°
Sets 20:12:53 0° 208° (SSW) 2,893 6.2 -10.9°
